Location: Baia de Cri?
(46.1667°N, 22.7167°E)
Time: 23:25:50
(UTC+00:00)

Sich 1 - Pass Details

Date: 15 January 2026
Orbit: 571 x 598 km, 82.5° (Epoch: 13 February)

Event Time Altitude Azimuth Distance (km) Brightness Sun altitude
Rises 04:32:09 0° 213° (SSW) 2,803 6.2 -16.1°
Reaches altitude 10° 04:34:33 10° 225° (SW) 1,903 5.3 -15.7°
Maximum altitude 04:38:16 30° 287° (WNW) 1,066 3.7 -15.1°
Drops below altitude 10° 04:41:58 10° 349° (NNW) 1,902 5.3 -14.5°
Sets 04:44:23 0° 0° (N) 2,802 6.3 -14.1°
